Temp
65 65 65 65 65 65 66 66 66 66 65 66 66 65 65 66 65 63 58 67 68 70 69 65 66 65 65 63 63 61 52 49 54 53 57 59 59 61 63 61 61 62 62 63 65
65 64 65 65 65 65 65 66 65 65 65 65 65 65 65 65 64 59 68 71 71 71 66 63 59 62 59 59 59 56 49 52 59 59 59 60 60 60 61 59 60 61 61 61 64
64 64 64 65 64 64 65 65 65 65 65 65 65 64 64 64 58 60 69 71 71 70 67 64 63 61 56 56 56 54 51 57 60 61 61 60 58 60 59 56 61 61 61 60 63
63 64 64 64 65 65 64 64 64 64 65 65 65 64 62 61 49 60 69 69 70 68 66 62 60 55 52 52 56 51 56 58 60 60 60 59 59 58 58 63 64 64 62 61 62
62 63 63 63 64 64 64 64 64 65 65 64 65 63 60 55 56 63 66 66 67 66 63 60 56 54 52 52 54 52 54 58 61 59 60 60 59 58 59 62 62 61 59 59 62
62 62 62 63 63 64 64 64 64 64 64 64 64 63 57 50 62 64 64 63 63 62 60 60 57 57 53 52 53 54 55 57 59 58 58 58 57 58 61 60 60 59 58 59 60
61 61 61 62 63 63 63 63 64 64 64 64 63 63 55 55 63 64 64 62 61 60 58 59 60 57 54 50 54 54 50 53 55 57 57 58 55 54 62 59 59 58 58 58 59
60 61 61 61 62 62 62 62 63 63 63 64 63 59 53 60 62 61 61 60 62 61 59 61 62 58 54 54 51 48 49 44 52 55 56 57 50 57 61 58 60 58 57 57 58
58 60 60 61 61 62 62 62 62 63 64 63 57 54 49 61 57 60 62 57 59 59 59 60 59 53 54 47 45 42 38 41 47 54 53 53 49 56 57 56 59 58 56 56 57
56 58 60 60 61 61 61 62 61 59 58 58 56 50 50 51 55 59 63 61 56 55 53 53 52 49 47 45 38 40 37 40 42 50 49 47 49 52 54 54 55 55 56 56 57
57 56 60 60 60 61 60 54 48 45 50 48 48 47 48 53 57 56 61 58 57 54 47 49 45 42 46 49 47 44 42 40 43 49 47 46 47 52 55 52 53 54 54 55 57
57 55 57 60 61 61 57 49 52 51 42 47 48 49 51 54 49 54 60 51 50 45 47 44 42 49 51 49 46 44 41 41 44 47 46 45 45 50 51 52 55 58 59 57 59
57 56 55 60 60 57 52 52 55 55 40 44 48 48 50 52 50 50 55 53 49 45 45 43 46 51 48 45 44 44 42 42 44 45 45 42 43 48 50 52 56 55 61 62 61
57 55 54 59 54 54 49 57 53 51 30 37 42 46 49 49 45 53 55 52 47 45 45 45 50 47 45 44 47 40 47 45 43 42 36 42 33 43 47 48 50 55 54 58 60
56 55 55 59 53 48 54 56 52 50 20 38 39 50 47 46 44 47 54 51 45 45 46 42 44 44 42 44 48 43 49 45 44 41 39 39 36 41 42 43 48 54 54 57 59
56 54 53 54 54 56 58 54 50 31 21 33 40 39 39 41 42 48 49 51 49 46 44 43 48 48 46 48 50 48 44 43 42 40 33 40 38 35 43 47 50 56 58 57 56
56 54 49 56 49 58 55 48 30 24 31 31 35 40 38 36 39 41 44 42 41 37 38 42 43 46 49 42 46 46 40 33 30 30 30 34 34 43 45 49 52 56 57 56 54
55 54 51 56 57 56 51 37 24 23 27 35 38 40 34 37 35 38 37 38 45 41 38 35 33 43 47 45 42 42 42 34 26 26 28 33 32 39 49 57 58 55 55 52 54
55 50 50 53 57 56 42 29 26 24 33 34 38 33 33 35 36 35 36 37 43 45 37 35 35 42 45 47 49 41 37 42 33 18 24 31 36 45 45 49 50 50 52 55 54
47 47 47 54 58 50 37 30 27 36 38 39 31 37 30 34 32 33 32 37 40 46 46 37 30 38 42 48 46 43 47 35 33 26 21 29 30 38 40 46 51 51 53 56 51
47 38 48 56 54 42 32 26 34 37 41 34 31 33 36 33 33 33 31 35 42 39 47 39 37 36 40 39 41 41 40 40 39 33 26 22 33 41 49 52 51 52 53 52 52
42 32 49 54 38 37 34 32 41 37 38 37 37 35 31 36 35 33 31 36 42 43 38 41 38 32 34 39 41 44 42 43 35 31 31 29 37 46 46 48 47 50 50 50 50
35 39 50 50 30 32 33 34 37 37 36 36 33 36 35 33 31 32 33 41 41 43 39 40 34 23 30 37 41 39 42 45 44 37 31 28 37 47 45 46 49 47 50 49 49
39 34 39 37 36 35 32 33 32 37 38 36 35 37 34 32 33 32 33 37 40 42 45 47 33 33 30 31 35 35 40 43 41 34 35 36 40 49 45 45 49 50 49 49 48
35 31 33 30 33 37 38 34 33 32 36 38 34 33 33 30 31 26 33 37 38 42 39 40 32 32 36 33 34 37 37 39 39 40 35 40 41 47 52 52 55 55 52 56 58
33 33 34 31 35 35 37 32 34 30 34 33 32 36 35 31 34 30 35 38 36 37 36 37 28 32 31 33 35 33 37 38 38 38 36 41 41 53 52 51 48 49 50 53 56
34 36 38 35 33 30 26 32 32 33 35 38 37 34 34 36 40 41 41 41 40 37 36 36 32 27 27 30 30 27 33 36 39 42 41 35 42 49 48 49 47 50 52 55 57
MSLP
1011.97 1012.50 1012.82 1013.39 1013.73 1013.92 1014.29 1014.54 1014.95 1015.16 1015.49 1015.80 1016.01 1016.44 1016.92 1017.37 1017.89 1018.45 1018.32 1017.40 1017.20 1017.28 1017.50 1017.80 1018.01 1018.10 1018.08 1018.66 1018.80 1019.06 1019.74 1019.98 1019.50 1019.54 1018.95 1019.08 1019.19 1019.36 1019.55 1019.86 1020.19 1020.40 1020.53 1020.73 1020.73
1011.37 1011.92 1012.31 1012.76 1013.29 1013.57 1013.88 1014.07 1014.57 1014.84 1015.21 1015.59 1015.88 1016.46 1016.93 1017.24 1017.52 1017.64 1017.24 1017.20 1016.97 1017.20 1017.64 1017.91 1018.37 1018.53 1018.90 1019.03 1019.28 1019.48 1019.98 1019.50 1018.94 1018.71 1018.80 1018.98 1019.10 1019.31 1019.66 1019.88 1020.10 1020.28 1020.46 1020.77 1020.99
1010.51 1011.12 1011.83 1012.19 1012.69 1013.18 1013.60 1013.72 1014.16 1014.47 1014.94 1015.27 1015.73 1016.29 1016.41 1016.88 1017.46 1015.88 1016.27 1017.00 1016.93 1016.98 1017.58 1017.96 1018.24 1018.59 1019.25 1019.29 1019.50 1019.81 1019.74 1019.11 1018.72 1018.32 1018.48 1018.93 1019.11 1019.19 1019.48 1019.82 1019.48 1019.69 1020.09 1020.81 1021.15
1009.65 1010.31 1011.00 1011.65 1012.03 1012.65 1013.23 1013.43 1013.76 1014.02 1014.51 1014.92 1015.62 1016.16 1016.78 1015.47 1016.48 1016.20 1015.99 1016.76 1016.83 1017.13 1017.53 1018.25 1018.61 1019.04 1019.57 1019.79 1019.60 1019.96 1019.50 1019.11 1018.62 1018.35 1018.51 1018.91 1019.02 1019.18 1019.30 1018.80 1018.81 1019.11 1019.67 1020.55 1020.88
1008.86 1009.45 1010.24 1010.94 1011.55 1012.12 1012.70 1013.13 1013.40 1013.70 1014.21 1014.70 1015.41 1016.01 1016.76 1016.30 1016.61 1016.17 1016.47 1017.11 1017.00 1017.49 1017.79 1018.54 1018.98 1019.34 1019.74 1019.87 1019.90 1019.75 1019.57 1019.08 1018.69 1018.37 1018.31 1018.60 1018.89 1018.99 1018.96 1018.67 1018.81 1019.20 1019.78 1020.26 1020.63
1007.97 1008.69 1009.40 1010.23 1011.01 1011.50 1012.23 1012.79 1013.12 1013.43 1013.88 1014.45 1015.17 1015.58 1016.11 1016.08 1016.07 1016.41 1017.00 1016.89 1017.44 1017.81 1018.46 1018.83 1019.14 1019.34 1019.83 1019.95 1019.98 1019.74 1019.67 1019.40 1018.91 1018.59 1018.37 1018.49 1018.83 1018.99 1018.43 1018.59 1018.98 1019.37 1019.86 1020.24 1020.35
1007.12 1007.80 1008.65 1009.46 1010.45 1011.06 1011.72 1012.47 1012.87 1013.19 1013.64 1014.30 1015.08 1015.35 1015.85 1015.59 1015.92 1016.48 1016.72 1017.15 1017.56 1018.18 1019.36 1019.59 1019.35 1019.50 1019.71 1020.12 1020.04 1019.90 1020.05 1019.91 1019.25 1018.91 1018.67 1018.57 1018.84 1018.66 1018.28 1018.58 1019.07 1019.30 1019.65 1020.03 1020.20
1006.54 1006.97 1007.86 1008.90 1009.70 1010.61 1011.23 1012.18 1012.62 1013.04 1013.42 1014.21 1014.93 1015.42 1015.64 1015.76 1015.85 1016.52 1016.95 1017.85 1017.59 1017.62 1020.25 1019.95 1019.53 1019.84 1020.20 1020.32 1020.46 1020.57 1020.64 1020.48 1019.63 1019.20 1018.88 1019.07 1018.65 1018.37 1018.20 1018.76 1018.92 1019.14 1019.34 1019.65 1019.82
1005.23 1005.92 1007.16 1008.28 1009.23 1010.05 1010.81 1011.90 1012.47 1012.97 1013.38 1014.09 1015.06 1015.66 1015.69 1015.47 1016.12 1016.39 1016.86 1017.09 1018.03 1018.49 1019.94 1020.08 1019.99 1020.17 1020.56 1020.64 1021.26 1021.56 1021.10 1020.85 1020.25 1019.46 1019.34 1019.55 1019.02 1018.39 1018.38 1018.83 1018.77 1018.87 1019.01 1019.28 1019.39
1005.23 1005.85 1006.68 1007.75 1008.74 1009.52 1010.60 1011.75 1012.60 1013.51 1014.23 1014.98 1015.08 1016.32 1014.92 1015.36 1015.64 1015.98 1016.43 1017.00 1017.92 1018.51 1020.01 1019.95 1019.89 1020.08 1021.03 1020.89 1021.32 1021.52 1021.69 1021.18 1020.62 1019.92 1019.77 1019.82 1019.06 1018.84 1018.77 1018.94 1018.75 1018.85 1018.84 1018.82 1018.79
1004.49 1005.24 1006.03 1007.10 1008.13 1009.04 1010.61 1012.04 1013.82 1014.31 1014.33 1014.27 1014.20 1015.27 1015.67 1016.02 1015.59 1016.03 1016.42 1017.15 1017.98 1018.68 1019.34 1019.52 1020.09 1019.76 1019.86 1020.64 1021.42 1021.41 1021.81 1021.32 1020.99 1020.29 1020.21 1019.80 1019.36 1018.80 1018.51 1018.83 1018.65 1018.36 1018.30 1018.13 1018.02
1004.13 1004.63 1005.29 1006.36 1007.53 1008.79 1010.23 1010.93 1010.45 1010.88 1013.56 1014.82 1014.58 1014.75 1014.88 1014.95 1015.45 1016.07 1016.12 1016.72 1017.59 1018.00 1018.49 1019.38 1018.48 1018.85 1019.74 1020.51 1021.23 1021.63 1021.91 1021.63 1021.13 1020.66 1020.76 1020.00 1019.40 1018.47 1018.36 1018.11 1017.75 1017.52 1017.33 1017.28 1017.18
1003.29 1004.43 1005.03 1005.70 1006.92 1008.65 1009.13 1010.07 1010.85 1010.87 1013.46 1015.13 1015.06 1015.09 1015.28 1015.60 1015.30 1015.43 1016.24 1016.39 1017.24 1017.86 1018.13 1018.35 1018.61 1018.59 1019.38 1020.45 1021.07 1021.54 1021.77 1021.82 1021.50 1021.19 1020.85 1020.49 1019.17 1017.95 1017.37 1016.98 1016.60 1016.41 1015.99 1015.72 1015.69
1002.48 1003.42 1004.47 1004.99 1007.07 1007.74 1008.66 1010.11 1010.60 1011.16 1013.50 1015.00 1015.36 1014.96 1015.15 1015.70 1015.99 1015.67 1015.72 1016.19 1017.33 1017.44 1018.30 1018.60 1018.27 1018.53 1019.25 1019.42 1020.07 1020.68 1020.64 1021.42 1021.67 1021.83 1021.64 1021.15 1019.22 1017.32 1016.87 1016.52 1015.92 1015.27 1015.01 1014.42 1014.45
1001.81 1003.09 1003.39 1004.14 1004.44 1006.11 1007.47 1009.29 1010.76 1011.59 1013.60 1014.55 1015.11 1014.92 1015.29 1015.74 1015.86 1016.17 1016.08 1016.60 1016.91 1017.23 1018.22 1018.36 1018.39 1018.74 1019.13 1019.10 1019.77 1020.08 1020.27 1020.88 1021.24 1021.91 1022.08 1021.33 1021.24 1016.61 1016.40 1015.90 1015.19 1014.22 1013.75 1013.36 1013.11
1001.30 1002.42 1003.38 1004.06 1005.21 1006.37 1007.69 1009.80 1011.31 1012.93 1013.40 1014.33 1014.57 1015.10 1015.77 1015.98 1016.24 1016.19 1016.52 1016.04 1016.46 1016.93 1017.91 1018.04 1018.06 1018.29 1018.36 1018.80 1019.04 1019.78 1020.39 1021.04 1021.64 1022.03 1021.67 1020.42 1020.70 1016.68 1015.82 1014.86 1014.09 1013.04 1012.47 1012.60 1012.81
1000.80 1001.94 1003.66 1003.82 1004.11 1005.51 1007.63 1010.37 1011.40 1012.46 1014.06 1014.37 1014.35 1014.85 1015.37 1016.10 1016.88 1016.46 1016.28 1016.03 1016.38 1017.31 1017.65 1017.97 1018.10 1018.22 1018.09 1018.85 1019.29 1019.41 1020.21 1021.38 1021.95 1022.23 1020.63 1019.93 1019.85 1016.06 1014.78 1013.96 1013.25 1012.37 1011.91 1011.86 1012.27
1000.32 1001.53 1002.44 1003.32 1004.16 1005.70 1007.56 1010.19 1010.98 1012.42 1013.40 1013.34 1013.79 1015.05 1015.58 1015.88 1016.66 1016.69 1016.69 1016.82 1016.59 1016.73 1017.30 1017.73 1018.21 1017.88 1017.58 1017.78 1018.24 1019.14 1019.64 1020.15 1020.99 1021.70 1020.78 1020.33 1018.20 1014.60 1013.40 1012.46 1012.03 1011.86 1011.72 1011.82 1011.95
1000.24 1001.58 1001.12 1002.31 1003.55 1005.14 1007.29 1009.49 1009.90 1011.41 1012.12 1012.45 1014.08 1014.70 1015.37 1015.80 1016.09 1016.91 1016.96 1016.70 1016.32 1016.59 1016.95 1017.45 1017.70 1017.20 1017.37 1017.74 1017.87 1018.79 1019.25 1019.72 1020.81 1021.83 1021.42 1019.41 1016.62 1014.33 1013.15 1012.23 1011.92 1011.71 1011.61 1011.15 1011.25
999.82 1000.93 1001.64 1001.67 1002.92 1005.05 1007.52 1009.34 1010.54 1010.80 1011.22 1011.93 1012.69 1013.75 1014.32 1015.25 1015.91 1016.33 1016.82 1016.06 1016.19 1016.08 1016.64 1017.18 1017.61 1017.53 1017.55 1017.86 1018.05 1018.06 1018.47 1019.80 1020.45 1021.07 1020.85 1018.29 1016.52 1013.96 1012.97 1012.44 1011.64 1011.61 1011.24 1010.87 1011.42
999.71 1000.42 1000.42 1001.59 1003.23 1005.51 1007.06 1009.73 1010.38 1010.48 1010.39 1011.64 1012.23 1013.12 1013.84 1014.53 1015.25 1015.79 1016.01 1016.08 1015.85 1016.13 1016.78 1017.29 1017.33 1018.25 1018.03 1017.66 1017.12 1018.02 1018.12 1018.72 1019.37 1020.01 1019.60 1017.94 1014.48 1012.36 1011.59 1011.04 1011.11 1011.10 1011.17 1011.12 1010.93
999.54 999.97 999.86 1001.15 1003.31 1005.45 1007.37 1008.89 1009.65 1010.37 1010.87 1011.29 1011.82 1012.55 1013.52 1014.52 1015.23 1015.98 1015.82 1015.48 1015.30 1015.67 1016.43 1017.14 1017.76 1018.29 1018.27 1017.80 1017.45 1017.19 1016.96 1017.74 1018.31 1018.18 1018.53 1017.54 1013.08 1011.29 1011.10 1010.99 1011.13 1010.94 1010.89 1010.93 1010.97
998.63 999.14 1000.90 1001.35 1003.28 1005.22 1007.65 1008.95 1009.44 1010.33 1010.85 1011.52 1012.48 1012.67 1013.36 1014.45 1015.66 1015.92 1015.66 1015.47 1015.37 1015.43 1015.63 1016.56 1017.26 1018.16 1018.62 1018.41 1017.75 1016.98 1016.69 1016.63 1016.98 1017.35 1017.39 1016.78 1011.91 1010.21 1010.79 1011.08 1010.79 1010.86 1010.47 1010.72 1010.83
997.41 999.19 1001.08 1003.08 1004.20 1005.11 1006.41 1008.91 1010.00 1010.68 1011.07 1011.88 1012.66 1013.13 1013.76 1014.79 1015.39 1015.60 1015.88 1015.77 1015.53 1015.65 1015.94 1016.24 1016.87 1017.02 1016.82 1016.91 1016.75 1016.98 1016.37 1016.58 1017.06 1016.93 1015.76 1015.29 1011.59 1008.76 1010.92 1010.88 1010.81 1010.47 1010.16 1010.05 1010.14
997.86 1000.30 1001.27 1003.32 1005.05 1005.70 1007.03 1008.96 1010.05 1011.02 1011.51 1011.76 1013.02 1012.97 1013.14 1014.60 1015.56 1015.77 1015.71 1015.98 1016.21 1016.07 1016.40 1016.67 1017.04 1017.36 1017.03 1017.32 1017.32 1017.19 1016.88 1016.64 1016.18 1015.29 1016.01 1012.36 1013.29 1007.85 1009.68 1010.32 1010.52 1010.49 1010.07 1009.57 1009.40
998.83 1000.73 1002.35 1004.42 1005.30 1006.03 1007.47 1009.30 1009.60 1011.06 1011.46 1011.98 1012.30 1013.12 1013.28 1013.88 1014.04 1015.18 1015.37 1015.76 1016.36 1017.02 1017.15 1017.40 1017.63 1017.79 1017.92 1017.96 1017.76 1017.27 1016.81 1016.49 1015.77 1015.75 1015.68 1013.62 1012.79 1006.70 1009.44 1009.94 1010.13 1010.19 1009.88 1009.31 1009.01
999.69 1000.40 1001.05 1004.86 1006.19 1006.80 1008.28 1009.01 1010.00 1010.39 1011.83 1011.78 1012.19 1012.99 1013.66 1014.46 1014.63 1015.01 1015.21 1015.82 1016.47 1016.93 1017.52 1017.93 1018.15 1018.53 1017.65 1018.21 1018.17 1017.31 1014.80 1015.19 1014.85 1014.34 1013.96 1013.37 1009.08 1007.48 1008.66 1009.62 1009.95 1009.58 1009.11 1008.47 1008.52
Wind_Speed
23 22 21 20 17 14 15 15 15 13 13 12 11 9 11 12 11 4 6 6 5 7 4 3 3 4 3 3 3 2 5 2 3 5 3 3 4 1 1 5 2 3 2 1 7
22 23 22 21 19 16 15 14 16 15 13 13 12 11 14 15 6 6 4 7 7 7 4 5 3 2 3 2 3 4 3 8 4 4 2 3 3 7 4 3 3 2 1 2 13
24 23 24 22 20 17 16 13 14 16 16 12 10 12 17 12 4 9 12 8 6 8 4 3 5 4 2 1 1 2 5 5 2 2 2 3 3 4 6 3 7 7 5 10 15
25 24 24 23 21 20 17 15 13 16 15 12 12 13 16 6 10 4 15 9 8 6 6 5 3 5 4 4 2 2 4 3 1 4 3 3 5 4 5 5 2 7 6 13 17
26 25 22 24 23 21 19 16 15 14 15 14 16 16 8 7 3 2 8 6 8 3 6 5 3 4 6 4 3 3 3 3 5 3 3 4 3 4 6 8 2 5 8 14 15
28 25 23 23 23 22 20 17 15 12 13 16 17 16 4 10 6 5 10 6 7 6 5 5 6 4 5 3 4 2 2 4 4 2 3 4 3 3 4 3 3 5 7 9 13
29 27 24 24 23 22 20 18 16 13 12 19 20 9 4 8 4 9 11 6 8 7 4 3 2 1 6 3 2 1 2 4 4 3 4 3 5 7 6 5 6 7 7 8 10
29 27 25 24 24 23 21 18 15 13 12 19 19 4 5 5 5 9 9 6 10 17 2 4 1 4 3 1 5 3 1 2 3 5 3 6 11 5 8 6 9 8 7 7 9
25 26 26 26 24 23 22 19 15 15 15 20 10 3 7 3 7 8 11 14 11 13 7 0 2 3 1 4 3 5 4 4 5 7 2 6 8 5 1 7 9 9 7 6 7
15 23 28 27 25 24 22 18 11 6 7 4 2 3 1 5 6 9 6 15 7 16 5 3 3 3 1 3 8 5 3 3 5 3 4 4 13 7 4 5 10 6 6 7 9
18 14 31 29 27 26 20 11 8 3 4 5 6 5 7 6 3 5 17 9 9 6 9 7 8 15 10 10 3 4 2 3 3 4 4 7 12 11 8 5 8 8 8 9 11
22 16 26 31 29 27 16 13 25 7 11 2 5 5 3 0 5 13 9 9 8 7 10 5 17 9 9 9 5 2 1 3 4 2 3 7 12 12 7 7 10 14 14 12 10
22 24 17 31 30 22 21 25 7 10 6 3 2 4 5 4 7 13 10 6 9 8 10 6 2 13 12 7 9 9 5 4 4 5 3 5 10 14 8 9 12 10 17 14 16
24 23 15 32 24 18 20 21 7 3 6 4 7 6 4 3 3 5 5 4 3 10 7 2 3 17 14 15 13 14 11 6 6 4 5 3 9 12 4 9 9 16 14 19 17
24 23 21 32 17 20 25 13 7 4 10 9 3 2 4 4 5 4 2 2 8 7 6 5 9 12 10 6 10 3 7 11 9 10 5 8 7 8 2 6 11 13 15 17 18
24 23 11 21 13 19 21 13 4 7 7 7 8 9 7 2 4 4 6 3 5 6 3 6 3 8 7 7 15 9 6 5 3 3 10 11 10 5 8 10 8 13 16 12 12
26 25 15 18 17 24 19 11 6 5 3 9 8 12 12 7 7 5 14 7 6 9 11 4 5 0 6 6 3 6 8 3 3 4 11 4 10 15 6 9 12 16 15 11 8
26 26 23 15 20 26 16 10 5 3 7 4 11 15 11 10 2 4 8 12 13 3 6 8 5 13 5 6 5 9 6 4 7 7 4 2 11 9 16 15 17 14 12 7 9
28 10 14 15 25 20 16 13 7 8 9 12 18 19 7 5 7 6 10 11 10 12 8 7 6 3 5 4 10 6 7 2 3 2 2 5 10 8 10 15 9 13 11 17 13
10 10 19 27 26 18 12 6 5 8 12 16 7 11 14 19 8 10 12 7 11 18 4 3 2 1 6 5 5 6 10 4 2 5 6 7 6 11 2 8 15 12 13 14 4
10 6 18 25 19 17 17 5 6 4 11 6 6 9 14 16 10 14 10 1 10 8 15 3 5 2 6 8 13 6 7 4 4 3 4 3 8 8 15 13 10 8 8 8 8
6 5 19 20 14 8 16 12 7 6 4 5 7 6 7 15 14 10 10 8 8 13 19 9 3 4 7 1 2 8 12 13 8 11 3 2 19 4 5 5 5 10 9 8 9
7 10 15 20 8 7 9 6 5 5 4 4 5 2 2 9 8 5 7 5 7 15 14 10 5 3 2 1 3 8 13 14 15 3 8 4 18 5 2 5 9 9 8 8 9
8 13 10 4 2 15 20 10 7 4 5 6 6 5 7 6 4 13 6 1 3 6 7 14 3 13 16 5 5 6 13 15 13 6 15 15 32 32 5 6 10 11 8 8 7
4 4 2 8 8 15 13 7 16 8 1 5 4 2 8 6 4 2 5 4 5 3 3 6 6 6 13 2 2 2 1 13 19 25 12 29 20 38 16 16 17 14 13 19 21
7 7 5 6 13 21 7 9 19 6 5 4 9 11 4 6 7 8 8 4 3 3 2 2 2 5 6 4 7 12 13 14 16 11 9 25 29 44 12 11 7 9 12 16 20
2 2 8 8 6 10 5 11 11 9 8 6 15 8 5 5 12 8 4 4 5 6 3 3 3 2 20 5 3 8 19 16 18 16 20 19 37 34 27 16 6 10 15 18 16
Wind_Direction
221 215 214 213 217 212 218 219 202 197 196 197 212 186 176 157 133 159 222 210 172 155 127 113 32 2 48 66 23 129 74 169 217 162 244 158 161 34 143 121 205 202 165 287 143
222 221 214 213 210 214 212 216 207 196 200 203 200 190 170 155 150 210 242 186 152 160 114 135 132 60 44 59 20 82 131 204 209 181 262 200 189 166 154 126 243 273 190 75 154
217 216 217 212 209 208 213 206 214 199 200 198 191 188 178 173 174 211 173 181 160 150 119 102 118 105 96 73 141 158 188 207 214 182 171 209 186 177 133 226 222 207 175 158 175
214 214 213 215 210 205 210 204 210 204 199 191 197 189 172 218 209 27 155 157 145 135 108 105 85 103 125 169 155 158 252 246 205 106 122 194 124 183 203 214 230 226 152 166 184
211 211 207 210 209 205 203 207 201 212 198 176 194 154 165 202 221 49 132 130 73 80 134 126 107 127 159 164 125 154 248 215 259 246 203 129 228 212 240 246 4 115 150 178 191
207 208 202 201 206 203 202 202 199 197 193 171 169 148 130 228 118 149 128 90 75 68 37 29 164 173 113 139 165 195 249 295 318 311 175 164 218 163 249 153 151 158 186 192 195
207 203 200 194 201 200 195 200 195 192 193 172 167 156 165 213 186 156 156 157 148 80 47 354 348 341 145 142 302 88 4 334 239 224 273 146 284 208 230 158 202 213 199 206 214
209 201 194 194 193 195 190 194 185 189 185 170 166 129 202 149 160 142 133 128 107 101 116 272 241 102 45 188 37 133 115 178 269 151 262 163 253 250 226 181 225 224 225 215 220
212 196 194 190 190 188 182 186 182 185 179 172 177 220 173 138 147 153 143 135 122 111 119 193 36 86 350 98 52 10 208 195 295 202 136 188 260 246 62 204 238 227 216 232 231
188 215 200 189 186 180 173 168 175 131 103 108 264 186 308 181 144 134 136 139 121 120 125 110 57 82 130 136 225 196 221 224 205 248 189 218 262 272 277 221 245 273 247 233 239
192 198 208 185 182 175 154 137 124 155 192 202 180 139 143 132 146 166 150 127 137 158 170 171 174 193 170 223 143 80 237 203 251 267 207 232 252 253 250 226 260 253 245 238 239
185 167 208 185 178 169 151 170 181 165 142 281 103 77 75 241 140 159 169 149 164 167 128 148 211 186 123 148 147 129 199 254 272 300 230 283 265 260 239 236 222 239 250 238 240
196 187 215 180 169 158 168 183 158 107 124 73 165 170 146 147 171 171 177 132 167 146 175 184 188 146 153 148 166 206 227 236 230 335 280 308 272 261 240 233 240 226 234 238 232
194 185 202 170 162 161 172 176 169 102 93 194 180 210 101 195 175 156 183 141 152 187 185 192 158 153 171 183 181 213 183 184 318 352 257 18 288 275 270 245 242 245 225 235 233
194 187 186 178 156 175 159 152 151 73 174 167 169 49 162 167 120 186 110 64 150 145 166 164 161 163 186 187 177 218 166 188 198 231 282 224 269 267 247 244 254 252 238 238 234
186 180 200 181 156 154 142 131 92 138 192 149 141 158 124 95 11 120 168 146 150 121 137 180 159 173 186 160 180 146 107 74 79 111 250 243 218 218 224 220 238 244 248 241 235
185 169 198 171 166 146 137 139 140 182 232 141 153 163 152 158 142 162 187 183 161 169 196 150 156 178 152 113 121 176 135 189 186 185 247 322 200 248 256 245 226 241 251 249 240
178 177 199 183 142 145 144 152 142 108 174 182 139 158 171 143 135 137 146 204 203 127 135 186 209 187 180 179 173 185 174 178 199 192 253 40 231 250 230 248 252 247 263 277 266
175 178 162 165 146 150 150 186 145 182 165 142 135 165 146 170 120 138 188 203 203 189 176 175 232 82 185 141 161 165 206 73 128 71 35 217 284 282 237 260 263 258 261 264 253
165 204 172 154 150 147 155 125 119 147 121 138 124 180 170 177 138 167 170 198 205 202 85 192 112 4 179 129 215 203 130 178 172 197 240 256 268 233 295 249 257 261 260 272 296
158 166 153 151 143 154 177 140 130 125 121 134 131 142 181 179 172 186 190 153 177 166 191 207 141 39 138 200 188 163 190 186 130 181 206 274 260 215 218 240 254 282 279 277 274
147 153 152 150 151 161 169 143 128 119 79 105 87 93 140 173 180 188 202 214 190 149 189 183 92 177 208 183 341 224 199 200 212 221 252 192 269 159 216 252 243 267 284 287 274
125 123 151 152 150 133 114 86 91 129 104 95 108 95 110 149 170 170 176 217 173 175 170 169 211 135 274 298 265 222 216 218 226 30 220 189 263 66 186 284 279 271 297 304 296
132 136 134 86 75 139 133 130 115 31 80 95 108 96 104 148 59 181 156 178 202 168 155 162 154 206 216 178 145 197 197 214 212 229 249 243 266 264 255 298 300 292 287 284 285
31 77 76 123 134 133 121 122 143 127 17 111 90 192 140 130 141 72 127 120 55 120 133 168 215 209 247 305 38 133 222 222 224 235 233 253 258 271 249 256 261 271 299 298 292
110 137 71 81 119 124 115 150 153 117 144 134 122 149 129 150 178 163 149 139 149 60 115 38 236 174 267 219 231 255 256 233 239 260 292 271 266 259 288 297 292 264 271 270 280
90 35 108 114 119 117 174 154 148 124 25 130 140 126 160 98 109 125 105 134 135 134 138 156 160 221 255 167 141 262 227 238 242 222 224 242 251 286 277 259 298 283 269 272 274